sat.trackr.live / text

‹ back to catalog

STARLINK-35012

NORAD 65384 · 2025-191F

PAYLOAD ACTIVE UNKNOWN

§ Identity

Operator
Country
US
Launch date
2025-08-30
Launch site
AFWTR
Launch vehicle
Mass (kg)
RCS (m²)

Purposes: comms

External: N2YO · Heavens-Above · Gunter

§ Orbital elements

Epoch: 2026-05-25T02:12:14.861088Z

Period
95.64 min
Inclination
97.4516°
Eccentricity
0.0002302
Mean motion
15.05656378 rev/d
Perigee alt
547.9 km
Apogee alt
551.1 km
Semi-major
6,927.6 km
B*
2.2373e-4
RAAN
16.4240°
Arg perigee
84.3238°
Mean anomaly
275.8251°
Rev number
4,176

§ Raw data

STARLINK-350121 65384U 25191F   26145.09183867  .00003172  00000+0  22373-3 0  99962 65384  97.4516  16.4240 0002302  84.3238 275.8251 15.05656378 41766

JSON: /api/v1/satellites/65384 · /tle

For live sub-satellite position, see the globe view (requires WebGL).

§ Visibility from observer

Set your observer location to see the next 7 days of passes ≥ 10°. The values pass through the URL so the page stays shareable.

No JS? Fill the form by hand. The geolocation button needs JavaScript.